Regional Weather Roundup
Issued by NWS Jackson, KY

Home | Current Version | Previous Version | Graphics & Text | Print | Product List | Glossary On
Versions: 1 2 3 4 5 6 7 8 9 10 11 12 13 14 15 16 17 18 19 20 21 22 23 24 25 26 27 28
000
ASUS43 KJKL 101610
RWRJKL

EAST KENTUCKY HOURLY WEATHER ROUNDUP
NATIONAL WEATHER SERVICE JACKSON KY
1100 AM EST SAT DEC 10 2016

NOTE: "FAIR" INDICATES FEW OR NO CLOUDS BELOW 12,000 FEET WITH
NO SIGNIFICANT WEATHER AND/OR OBSTRUCTIONS TO VISIBILITY.

* THESE REPORTS ARE NOT UNDER NWS QUALITY CONTROL AND MAY NOT
  REPORT WEATHER SUCH AS PRECIPITATION AND FOG.

KYZ079-080-083-085-087-088-110-112-115-119-120-101700
...EASTERN KENTUCKY...

CITY           SKY/WX    TMP DP  RH WIND       PRES   REMARKS
JACKSON        CLOUDY    24  15  68 VRB3      30.57S
LONDON         SUNNY     24  16  71 VRB3      30.57F
SOMERSET*      MOSUNNY   23  23 100 CALM      30.61F
MONTICELLO*    SUNNY     31  25  78 VRB5      30.61F WCI  26
MIDDLESBORO*   SUNNY     26  18  72 CALM      30.59F
HARLAN APT*    SUNNY     28  19  69 CALM      30.55F
PIKE CO APT*   CLOUDY    22  14  72 NW3       30.56S
BIG SANDY APT* CLOUDY    24  15  68 W6        30.58R WCI  17
MOREHEAD APT*  CLOUDY    27  14  59 W5        30.60F WCI  21
ASHLAND*       SUNNY     27  16  63 W6        30.60S WCI  20
$$

KYZ035-036-041-042-044-050-067-078-099-101700
...CENTRAL KENTUCKY...

CITY           SKY/WX    TMP DP  RH WIND       PRES   REMARKS
MT STERLING*   CLOUDY    27  18  69 W5        30.60S WCI  21
FLEMING/MASON* SUNNY     26  16  66 SW8       30.59S WCI  17
DANVILLE*      SUNNY     27  18  69 CALM      30.60S
LEXINGTON      PTSUNNY   26  14  60 MISG      30.59S
FRANKFORT      PTSUNNY   26  15  63 SW6       30.59S WCI  19
LOUISVILLE     PTSUNNY   29  14  53 VRB6      30.61F WCI  23
LEBANON*         N/A     27  16  63 CALM      30.61R
GLASGOW*       SUNNY     29  19  66 SW3       30.61F
BOWLING GREEN  MOSUNNY   29  18  63 SE3       30.63S
$$

KYZ091>093-OHZ055-061-077-WVZ005-015-034-035-042-101700
...SOUTHERN OHIO/WEST VIRGINIA...

CITY           SKY/WX    TMP DP  RH WIND       PRES   REMARKS
COVINGTON      PTSUNNY   25  16  68 W7        30.57R WCI  17
COLUMBUS       CLOUDY    24  19  81 W3        30.54S
DAYTON         FLURRIES  24  16  71 W13       30.54R WCI  12
WILMINGTON     PTSUNNY   27  16  63 W12       30.53F WCI  17
HUNTINGTON     MOSUNNY   27  12  53 SW7       30.59S WCI  19
CHARLESTON     FLURRIES  25  12  58 SW8       30.58R WCI  16
PINEVILLE*       N/A     26  13  57 MISG      30.57F
BECKLEY        CLOUDY    21  11  65 VRB3      30.44F
BLUEFIELD      SUNNY     19  11  70 W12       30.43F WCI   7
LOGAN CO APT*  CLOUDY    23  14  68 CALM      30.53S
$$

VAZ002-007-008-TNZ017-027-036-066-071-101700
...SOUTHWEST VIRGINIA/EAST TENNESSEE...

CITY           SKY/WX    TMP DP  RH WIND       PRES   REMARKS
WISE*          SUNNY     27  16  63 S3        30.47S
JONESVILLE*      N/A     28  18  64 CALM      30.58F
ABINGDON*      SUNNY     28  18  64 SW5       30.50F WCI  23
BRISTOL        MOSUNNY   28  20  71 CALM      30.55F
MORRISTOWN*    SUNNY     30  18  59 CALM      30.56S
SEVIERVILLE*   SUNNY     28  18  64 CALM      30.58S
KNOXVILLE      MOSUNNY   32  17  54 N5        30.58S WCI  27
OAK RIDGE      SUNNY     31  18  58 CALM      30.60F
CROSSVILLE     SUNNY     26  17  68 E6        30.53F WCI  19
NASHVILLE      PTSUNNY   31  20  63 CALM      30.63S
$$

...KEY TO REMARKS...
VSB - VISIBILITY IN MILES
WCI - WIND CHILL INDEX
HX  - HEAT INDEX

$$




USA.gov is the U.S. government's official web portal to all federal, state and local government web resources and services.